CZ-6A DEB, 54263

Orbit data source: Space-Track

CZ-6A DEB, 54263 is space debris in SSO originally from a launch on Fri, 11 Nov 2022 UTC launched from the Taiyaun Space Center, China (TSC). Debris objects in space refer to the collection of defunct objects orbiting the Earth. Examples of debris include non-operational satellites, rocket bodies, and fragments generated from explosions, collisions, or faulty payload assembly.

Loading next visibility...
Identifier
54263, 2022-151E
Orbit
SSO
Country
Flag of CNCN / PRC
Related business
Manufacturer
SAST
Mission
Spacecraft
Bus & Motor
Unknown
Mass
Unknown
Launch date (UTC)
2022-11-11 (4 years ago)
Launch vehicle
Unknown
Launch site
Taiyaun Space Center, China (TSC)
Object type
Payload
Rocket body
Debris
Shape & HBR
Unknown shape, 0.1 m
Radar Cross Section
Medium (>0.1 m² and <1 m²)

Expand to show TLE details & history
Last TLE update: 2 days ago

TLE from 2 days ago
0 CZ-6A DEB
1 54263U 22151E   26171.34607529  .00000240  00000-0  29679-3 0  9996
2 54263  99.1441  96.8704 0302195 290.5929  66.3040 13.56760211178355
Epoch: 2026-06-20T08:18Z
TLE epoch observation values (Epoch: 2026-06-20T08:18:20.905Z)
Latitude
0.0001°
Longitude
63.72126°
Altitude
965.898 km
Speed
7.411 km/s
True Right ascension
06h 27m 28s
True Declination
0° 00' 00"
Sunlit
Object was in daylight at epoch
Visualization orbit readout
Latitude
Unknown
Longitude
Unknown
Altitude
Unknown
Speed
Unknown
Apparent Right ascension
Unknown
Apparent Declination
Unknown
Sunlit
N/A
Visualization observer readout
Local Sidereal Time
21:36:34
Azimuth
Unknown
Elevation
Unknown
Doppler factor
Unknown
Orbital elements
Apogee altitude
1,269.066 km
Perigee altitude
820.434 km
Semi-major axis
7,422.887 km
Eccentricity
0.03022
Inclination
99.1441°
RAAN
96.8704°
Arg. of periapsis
290.5929°
True anomaly
69.5221°
Mean anomaly
66.304°
Eccentric anomaly
67.90833°
Mean motion
3.39378 °/min
Orbital period
106.08 mins
BSTAR
0.00029679
Loading maneuver chart data...
Computing Atmospheric mass density...
Loading historical data...
Loading historical data...
Loading historical data...
Loading historical data...
Loading historical data...
Loading historical data...
Loading historical data...

Documentation

Showing up to 5 results
|